Albuquerque, NM

8:18 AM MDT on October 22, 2017 (GMT -0600)
Albuquerque International Sunport

Weather History for KABQ - November, 2014

Change the Weather History Date:

Thursday, November 13, 2014

  Actual Average Record
Temperature  
Mean Temperature 33 °F 46 °F  
Max Temperature 44 °F 57 °F 72 °F (1995)
Min Temperature 21 °F 35 °F 13 °F (1940)
Degree Days  
Heating Degree Days 32 19  
Month to date heating degree days 185 214  
Since 1 July heating degree days 298 480  
Cooling Degree Days 0 0  
Month to date cooling degree days 0 0  
Year to date cooling degree days 1444 1322  
Moisture  
Dew Point 16 °F    
Average Humidity 49    
Maximum Humidity 59    
Minimum Humidity 39    
Precipitation  
Precipitation 0.00 in 0.02 in 0.78 in (1902)
Month to date precipitation 0.24 0.26  
Year to date precipitation 7.66 8.64  
Snow  
Snow 0.00 in - - ()
Month to date snowfall 0.0  
Since 1 July snowfall 0.0  
Since 1 September snowfall 0.0  
Snow Depth 0.00 in    
Sea Level Pressure  
Sea Level Pressure 30.24 in    
Wind  
Wind Speed 5 mph (East)    
Max Wind Speed 23 mph    
Max Gust Speed 28 mph    
Visibility 10 miles    
Events      
T = Trace of Precipitation, MM = Missing Value Source: NWS Daily Summary

Daily Weather History Graph

Daily Weather History Graph

Search for Another Location

Airport or City:

Trip Planner

Search our weather history database for the weather conditions in past years. The results will help you decide how hot, cold, wet, or windy it might be!

Date:

Astronomy

Nov. 13, 2014 Rise Set
Actual Time 6:39 AM MST 5:02 PM MST
Civil Twilight 6:12 AM MST 5:28 PM MST
Nautical Twilight 5:41 AM MST 5:59 PM MST
Astronomical Twilight 5:11 AM MST 6:29 PM MST
Moon 11:17 PM MST (11/13) 12:04 PM MST (11/13)
Length of Visible Light 11h 16m
Length of Day
10h 22m
Waning Gibbous, 58% of the Moon is Illuminated
Nov 13
Waning Gibbous
Nov 14
Last Quarter
Nov 22
New
Nov 29
First Quarter
Dec 6
Full

Hourly Weather History & Observations

Time (MST) Temp. Windchill Dew Point Humidity Pressure Visibility Wind Dir Wind Speed Gust Speed Precip Events Conditions
12:52 AM 24.1 °F - 10.9 °F 57% 30.27 in 10.0 mi Calm Calm - N/A   Partly Cloudy
1:52 AM 24.1 °F 12.5 °F 10.0 °F 55% 30.27 in 10.0 mi ENE 12.7 mph - N/A   Scattered Clouds
2:52 AM 24.1 °F 19.7 °F 10.0 °F 55% 30.27 in 10.0 mi ENE 3.5 mph - N/A   Partly Cloudy
3:52 AM 21.9 °F 15.7 °F 9.0 °F 58% 30.31 in 10.0 mi North 4.6 mph - N/A   Partly Cloudy
4:48 AM 21.2 °F 12.6 °F 8.6 °F 58% 30.26 in 10.0 mi NNW 6.9 mph - N/A   Mostly Cloudy
4:52 AM 21.9 °F 13.4 °F 9.0 °F 58% 30.33 in 10.0 mi NNW 6.9 mph - N/A   Scattered Clouds
5:52 AM 21.0 °F 12.4 °F 9.0 °F 60% 30.35 in 10.0 mi NNW 6.9 mph - N/A   Mostly Cloudy
6:16 AM 21.9 °F 14.5 °F 9.0 °F 58% 30.26 in 10.0 mi NNW 5.8 mph - N/A   Mostly Cloudy
6:52 AM 21.9 °F 14.5 °F 9.0 °F 58% 30.37 in 10.0 mi North 5.8 mph - N/A   Mostly Cloudy
7:52 AM 23.0 °F 15.8 °F 10.0 °F 58% 30.38 in 10.0 mi NNW 5.8 mph - N/A   Scattered Clouds
8:52 AM 25.0 °F 18.1 °F 10.9 °F 55% 30.39 in 10.0 mi WNW 5.8 mph - N/A   Mostly Cloudy
9:52 AM 28.0 °F - 12.0 °F 51% 30.36 in 10.0 mi Calm Calm - N/A   Mostly Cloudy
10:52 AM 32.0 °F 28.7 °F 15.1 °F 50% 30.35 in 10.0 mi Variable 3.5 mph - N/A   Mostly Cloudy
11:52 AM 34.0 °F 31.0 °F 16.0 °F 48% 30.30 in 10.0 mi SW 3.5 mph - N/A   Scattered Clouds
12:52 PM 37.0 °F 34.5 °F 17.1 °F 44% 30.23 in 10.0 mi NW 3.5 mph - N/A   Scattered Clouds
1:52 PM 41.0 °F 39.0 °F 19.0 °F 41% 30.18 in 10.0 mi Variable 3.5 mph - N/A   Mostly Cloudy
2:52 PM 43.0 °F 38.8 °F 19.9 °F 40% 30.13 in 10.0 mi SSE 6.9 mph - N/A   Mostly Cloudy
3:52 PM 43.0 °F 37.7 °F 21.0 °F 42% 30.14 in 10.0 mi SW 9.2 mph - N/A   Mostly Cloudy
4:52 PM 43.0 °F 41.3 °F 21.0 °F 42% 30.12 in 10.0 mi SE 3.5 mph - N/A   Mostly Cloudy
5:52 PM 43.0 °F 41.3 °F 21.9 °F 43% 30.14 in 10.0 mi ESE 3.5 mph - N/A   Mostly Cloudy
6:52 PM 41.0 °F 38.0 °F 21.9 °F 47% 30.15 in 10.0 mi SE 4.6 mph - N/A   Mostly Cloudy
7:52 PM 39.0 °F 34.8 °F 23.0 °F 53% 30.16 in 10.0 mi SE 5.8 mph - N/A   Mostly Cloudy
8:52 PM 39.0 °F 34.0 °F 23.0 °F 53% 30.16 in 10.0 mi South 6.9 mph - N/A   Mostly Cloudy
9:52 PM 37.9 °F 34.4 °F 23.0 °F 55% 30.16 in 10.0 mi South 4.6 mph - N/A   Scattered Clouds
10:52 PM 36.0 °F 32.1 °F 23.0 °F 59% 30.15 in 10.0 mi SE 4.6 mph - N/A   Scattered Clouds
11:52 PM 35.1 °F 28.6 °F 23.0 °F 61% 30.12 in 10.0 mi SSE 8.1 mph - N/A   Mostly Cloudy